星链-36721(STARLINK-36721)

导读

STARLINK-36721是美国SpaceX星链互联网卫星星座的一员,于2026年2月22日发射升空,加入由数万颗低轨卫星组成的星链网络。它延续星链星座设计,将为全球范围用户提供高速低延迟的宽带互联网服务,进一步完善星链星座的覆盖密度与服务能力,推动全球卫星互联网布局。

Basic Information
目录编号:
67916
目录名称:
STARLINK-36721
国际标识:
2026-036N
轨道中心:
EARTH
卫星名称:
星链-36721
卫星全名:
星链-36721(STARLINK-36721)
卫星状态:
在轨 (已飞行195 天)
发射日期:
2026-02-22 UTC
国别 :
美国 (US)
星等 :
--
Orbit Information
数据来源 国际轨道数据
星历时间: 2026-09-05T13:33:17+0800
7小时前
查看轨道信息
半长轴: 6861.332km
偏心率: 0.0002588
轨道倾角: 43.005°
近地点辐角 298.676°
升交点赤经 311.043°
平近点角 61.383°
近地点: 481.419km
远地点: 484.971km
周期: 94.270分钟
每日圈数: 15.275316
Detailed Information
固有亮度:
5
最大亮度:
2.5
卫星平台:
Starlink V1.0
覆盖范围:
全球
运营商:
太空探索技术公司
运营商所在国:
美国
制造商(研发单位):
太空探索技术公司
制造商所在国:
美国
使用方式:
暂无
Satellite Introduction
Starlink 计划是 SpaceX 推出的全球卫星互联网项目,通过发射低轨道卫星,为全球尤其是偏远地区提供高速、低延迟的互联网服务。自 2019 年起,Starlink 已部署数千颗卫星,旨在缩小全球数字鸿沟,推动互联网普及。该项目还为军事、航空等行业提供通信支持,带来广泛经济效益。
2D Orbit Map
3D Orbit Map
Orbit Altitude Analysis Chart
Orbit Inclination Analysis Chart
Orbit Comprehensive Analysis Chart
View Comprehensive Chart
Conjunction Data List
Event ID Objects TCA Miss Dist (km) Collision Risk Probability Collision Risk Index (CRI) Action
CDM_260907-123405-707306-791621
2026-09-07T
12:34:23+0000
0.666 km
远距离
7.630307E-5 中风险 0.73
CDM_260908-021005-874206-791621
2026-09-08T
02:10:22+0000
1.053 km
极远距离
6.388227E-6 低风险 0.51
CDM_260908-032805-707306-791621
2026-09-08T
03:28:54+0000
1.476 km
极远距离
5.430888E-6 低风险 0.5
CDM_260908-025705-874206-791621
2026-09-08T
02:57:27+0000
1.498 km
极远距离
2.028926E-6 低风险 0.41
CDM_260908-024105-764306-791621
2026-09-08T
02:41:11+0000
2.115 km
极远距离
1.967622E-6 低风险 0.41
CDM_260907-140805-707306-791621
2026-09-07T
14:08:32+0000
2.195 km
极远距离
1.800384E-6 低风险 0.4
CDM_260907-110005-707306-791621
2026-09-07T
11:00:13+0000
2.361 km
极远距离
1.548854E-6 低风险 0.39
CDM_260907-125505-824806-791621
2026-09-07T
12:55:58+0000
1.868 km
极远距离
1.423489E-6 低风险 0.38
CDM_260908-015405-707306-791621
2026-09-08T
01:54:45+0000
2.880 km
极远距离
1.127517E-6 低风险 0.36
CDM_260908-012305-874206-791621
2026-09-08T
01:23:17+0000
2.213 km
极远距离
7.692577E-7 极低风险 0.33